Location: Risskov
(56.1972°N, 10.2480°E)
Time: 23:51:37
(UTC+00:00)

NOSS 3-4 (C) - Pass Details

Date: 05 July 2020
Orbit: 891 x 1321 km, 63.4° (Epoch: 12 July)

Event Time Altitude Azimuth Distance (km) Brightness Sun altitude
Rises 22:03:53 0° 309° (NW) 3,766 7.7 -9.3°
Reaches altitude 10° 22:06:26 10° 305° (NW) 2,869 6.8 -9.4°
Maximum altitude 22:13:02 54° 231° (SW) 1,350 4.1 -9.7°
Enters shadow 22:19:54 12° 157° (SSE) 3,013 5.4 -10.0°
